User: anonymous   Login
Location: Unspecified
(0.0000°N, 0.0000°E)
Time: 12:21:42
(UTC+02:00)
Language:

Cosmos 1703 - Orbit

View from above orbital plane
View from above orbital plane
View from above satellite
View from above satellite

Ground track
Ground track

The orbit data is extracted from the following two-line orbital elements,

1 16262U 85108A   16274.74858858  .00000804  00000-0  47663-4 0  9994
2 16262  82.4776 144.6907 0012184  85.4457 274.8164 15.09945716679745
Epoch (UTC): 30 September 2016 17:57:58
Eccentricity: 0.0012184
inclination: 82.4776°
perigee height: 528 km
apogee height: 545 km
right ascension of ascending node: 144.6907°
argument of perigee: 85.4457°
revolutions per day: 15.09945716
mean anomaly at epoch: 274.8164°
orbit number at epoch: 67974

The dashed part of the orbit path shows where the satellite is in the earth's shadow,  

DLR